Time,TemperatureF,DewpointF,PressureIn,WindDirection,WindDirectionDegrees,WindSpeedMPH,WindSpeedGustMPH,Humidity,HourlyPrecipIn,Conditions,Clouds,dailyrainin,SoftwareType,DateUTC
2015-07-01 00:00:00,64.4,58.1,30.09,SSE,167,0.0,0.0,80,0.00,,,0.00,VWS V12.08,2015-07-01 04:00:00,
2015-07-01 00:10:00,64.0,57.8,30.09,South,169,0.0,0.0,80,0.00,,,0.00,VWS V12.08,2015-07-01 04:10:00,
2015-07-01 00:15:00,64.0,57.8,30.09,South,169,0.0,0.0,80,0.00,,,0.00,VWS V12.08,2015-07-01 04:15:00,
2015-07-01 00:20:00,63.9,57.9,30.09,ESE,114,0.0,0.0,81,0.00,,,0.00,VWS V12.08,2015-07-01 04:20:00,
2015-07-01 00:25:00,63.7,57.8,30.09,ESE,114,0.0,0.0,81,0.00,,,0.00,VWS V12.08,2015-07-01 04:25:00,
2015-07-01 00:30:00,63.5,57.6,30.09,SSE,155,0.0,0.0,81,0.00,,,0.00,VWS V12.08,2015-07-01 04:30:00,
2015-07-01 00:40:00,63.3,57.4,30.06,SSE,168,0.0,0.0,81,0.00,,,0.00,VWS V12.08,2015-07-01 04:40:00,
2015-07-01 00:45:00,63.3,57.4,30.06,South,174,0.0,3.1,81,0.00,,,0.00,VWS V12.08,2015-07-01 04:45:00,
2015-07-01 00:55:00,63.5,57.6,30.06,South,170,0.0,3.1,81,0.00,,,0.00,VWS V12.08,2015-07-01 04:55:00,
2015-07-01 01:00:00,63.5,57.6,30.06,SW,225,0.0,3.1,81,0.00,,,0.00,VWS V12.08,2015-07-01 05:00:00,
2015-07-01 01:10:00,63.5,57.6,30.06,SSE,160,0.0,3.1,81,0.00,,,0.00,VWS V12.08,2015-07-01 05:10:00,
2015-07-01 01:15:00,63.5,57.9,30.06,South,171,2.2,3.1,82,0.00,,,0.00,VWS V12.08,2015-07-01 05:15:00,
2015-07-01 01:25:00,63.7,58.1,30.06,SE,126,0.0,2.7,82,0.00,,,0.00,VWS V12.08,2015-07-01 05:25:00,
2015-07-01 01:30:00,63.7,58.1,30.06,SSE,147,0.0,3.1,82,0.00,,,0.00,VWS V12.08,2015-07-01 05:30:00,
2015-07-01 01:40:00,63.7,58.1,30.06,SE,137,0.0,3.1,82,0.00,,,0.00,VWS V12.08,2015-07-01 05:40:00,
2015-07-01 01:45:00,63.5,58.4,30.06,SE,143,0.0,0.0,83,0.00,,,0.00,VWS V12.08,2015-07-01 05:45:00,
2015-07-01 01:50:00,63.5,58.2,30.06,SSE,156,0.0,2.2,83,0.00,,,0.00,VWS V12.08,2015-07-01 05:50:00,
2015-07-01 01:55:00,63.5,58.2,30.06,SSE,157,0.0,2.2,83,0.00,,,0.00,VWS V12.08,2015-07-01 05:55:00,
2015-07-01 02:00:00,63.3,58.1,30.06,SSE,156,0.0,2.2,83,0.00,,,0.00,VWS V12.08,2015-07-01 06:00:00,
2015-07-01 02:10:00,63.5,58.2,30.03,South,174,0.0,4.0,83,0.00,,,0.00,VWS V12.08,2015-07-01 06:10:00,
2015-07-01 02:15:00,63.5,58.6,30.03,SSE,161,0.0,4.0,84,0.00,,,0.00,VWS V12.08,2015-07-01 06:15:00,
2015-07-01 02:20:00,63.7,58.8,30.03,SSW,193,0.0,4.0,84,0.00,,,0.00,VWS V12.08,2015-07-01 06:20:00,
2015-07-01 02:25:00,63.7,58.8,30.03,SSW,193,0.0,0.0,84,0.00,,,0.00,VWS V12.08,2015-07-01 06:25:00,
2015-07-01 02:30:00,63.9,59.3,30.03,SSW,192,0.0,0.0,85,0.00,,,0.00,VWS V12.08,2015-07-01 06:30:00,
2015-07-01 02:35:00,64.0,59.3,30.03,South,169,0.0,0.0,85,0.00,,,0.00,VWS V12.08,2015-07-01 06:35:00,
2015-07-01 02:40:00,64.0,59.5,30.03,East,89,0.0,0.0,85,0.00,,,0.00,VWS V12.08,2015-07-01 06:40:00,
2015-07-01 02:45:00,64.2,60.0,30.03,East,89,0.0,0.0,86,0.00,,,0.00,VWS V12.08,2015-07-01 06:45:00,
2015-07-01 02:55:00,64.2,60.0,30.03,East,89,0.0,0.0,86,0.00,,,0.00,VWS V12.08,2015-07-01 06:55:00,
2015-07-01 03:01:00,64.2,60.0,30.03,SSE,162,0.0,0.0,87,0.00,,,0.00,VWS V12.08,2015-07-01 07:01:00,
2015-07-01 03:10:00,64.0,60.1,30.03,ESE,113,0.0,3.6,87,0.00,,,0.00,VWS V12.08,2015-07-01 07:10:00,
2015-07-01 03:15:00,64.0,60.1,30.03,SSE,168,0.0,3.6,87,0.00,,,0.00,VWS V12.08,2015-07-01 07:15:00,
2015-07-01 03:20:00,64.0,60.4,30.03,ENE,67,0.0,3.6,88,0.00,,,0.00,VWS V12.08,2015-07-01 07:20:00,
2015-07-01 03:25:00,64.0,60.4,30.03,East,81,0.0,0.0,88,0.00,,,0.00,VWS V12.08,2015-07-01 07:25:00,
2015-07-01 03:30:00,63.9,60.2,30.03,ESE,114,0.0,0.0,88,0.00,,,0.00,VWS V12.08,2015-07-01 07:30:00,
2015-07-01 03:35:00,63.9,60.2,30.03,SSW,203,0.0,2.2,88,0.00,,,0.00,VWS V12.08,2015-07-01 07:35:00,
2015-07-01 03:40:00,63.9,60.1,30.03,SSW,203,0.0,2.2,88,0.00,,,0.00,VWS V12.08,2015-07-01 07:40:00,
2015-07-01 03:45:00,63.7,60.1,30.03,SSW,212,0.0,2.7,88,0.00,,,0.00,VWS V12.08,2015-07-01 07:45:00,
2015-07-01 03:55:00,63.5,59.9,30.03,East,89,0.0,2.7,88,0.00,,,0.00,VWS V12.08,2015-07-01 07:55:00,
2015-07-01 04:01:00,63.3,59.9,30.03,ESE,109,0.0,2.7,88,0.00,,,0.00,VWS V12.08,2015-07-01 08:01:00,
2015-07-01 04:10:00,63.1,59.5,30.03,East,89,0.0,0.0,88,0.00,,,0.00,VWS V12.08,2015-07-01 08:10:00,
2015-07-01 04:16:00,63.0,59.8,30.03,South,189,0.0,2.2,89,0.00,,,0.00,VWS V12.08,2015-07-01 08:16:00,
2015-07-01 04:25:00,62.8,59.5,30.00,ENE,64,0.0,2.2,89,0.00,,,0.00,VWS V12.08,2015-07-01 08:25:00,
2015-07-01 04:30:00,62.6,59.3,30.00,SE,141,0.0,2.2,89,0.00,,,0.00,VWS V12.08,2015-07-01 08:30:00,
2015-07-01 04:35:00,62.4,59.1,30.00,NNW,343,0.0,2.2,89,0.00,,,0.00,VWS V12.08,2015-07-01 08:35:00,
2015-07-01 04:40:00,62.2,59.0,30.00,NNW,343,0.0,2.2,89,0.00,,,0.00,VWS V12.08,2015-07-01 08:40:00,
2015-07-01 04:45:00,62.2,59.0,30.00,NE,42,2.2,2.7,89,0.00,,,0.00,VWS V12.08,2015-07-01 08:45:00,
2015-07-01 04:55:00,62.2,59.0,30.00,South,182,0.0,2.7,89,0.00,,,0.00,VWS V12.08,2015-07-01 08:55:00,
2015-07-01 05:00:00,62.2,59.0,30.00,SSE,156,0.0,2.7,89,0.00,,,0.00,VWS V12.08,2015-07-01 09:00:00,
2015-07-01 05:10:00,62.2,59.0,30.00,SE,146,0.0,3.6,89,0.00,,,0.00,VWS V12.08,2015-07-01 09:10:00,
2015-07-01 05:15:00,62.4,59.1,30.00,SSW,206,2.7,3.6,89,0.00,,,0.00,VWS V12.08,2015-07-01 09:15:00,
2015-07-01 05:25:00,62.8,59.5,30.00,SSW,208,2.7,3.6,89,0.00,,,0.00,VWS V12.08,2015-07-01 09:25:00,
2015-07-01 05:30:00,63.0,60.0,30.00,SE,129,0.0,3.6,90,0.00,,,0.00,VWS V12.08,2015-07-01 09:30:00,
2015-07-01 05:40:00,63.1,60.2,30.00,East,97,0.0,3.6,90,0.00,,,0.00,VWS V12.08,2015-07-01 09:40:00,
2015-07-01 05:45:00,63.1,60.2,30.00,SE,129,0.0,2.7,90,0.00,,,0.00,VWS V12.08,2015-07-01 09:45:00,
2015-07-01 05:50:00,63.3,60.5,30.00,SSW,208,2.7,2.7,90,0.00,,,0.00,VWS V12.08,2015-07-01 09:50:00,
2015-07-01 05:55:00,63.7,60.7,29.97,South,186,0.0,4.5,90,0.00,,,0.00,VWS V12.08,2015-07-01 09:55:00,
2015-07-01 06:00:00,63.9,60.9,29.97,South,173,2.2,4.5,90,0.00,,,0.00,VWS V12.08,2015-07-01 10:00:00,
2015-07-01 06:10:00,64.0,61.4,29.97,South,182,2.7,3.6,91,0.00,,,0.00,VWS V12.08,2015-07-01 10:10:00,
2015-07-01 06:15:00,64.0,61.5,29.97,East,94,0.0,3.6,91,0.00,,,0.00,VWS V12.08,2015-07-01 10:15:00,
2015-07-01 06:20:00,64.2,61.5,29.97,South,179,0.0,3.6,91,0.00,,,0.00,VWS V12.08,2015-07-01 10:20:00,
2015-07-01 06:25:00,64.0,61.4,30.00,East,86,0.0,4.9,91,0.00,,,0.00,VWS V12.08,2015-07-01 10:25:00,
2015-07-01 06:30:00,64.0,61.2,30.00,SW,225,0.0,4.9,91,0.00,,,0.00,VWS V12.08,2015-07-01 10:30:00,
2015-07-01 06:40:00,64.0,61.4,30.00,SE,137,0.0,4.9,91,0.00,,,0.00,VWS V12.08,2015-07-01 10:40:00,
2015-07-01 06:45:00,64.0,61.4,30.00,SW,218,0.0,5.4,91,0.00,,,0.00,VWS V12.08,2015-07-01 10:45:00,
2015-07-01 06:50:00,64.2,61.8,30.00,East,83,0.0,5.4,92,0.00,,,0.00,VWS V12.08,2015-07-01 10:50:00,
2015-07-01 06:55:00,64.2,61.7,30.00,SE,145,0.0,5.4,92,0.00,,,0.00,VWS V12.08,2015-07-01 10:55:00,
2015-07-01 07:00:00,64.4,61.7,30.00,SW,221,3.6,5.4,91,0.00,,,0.00,VWS V12.08,2015-07-01 11:00:00,
2015-07-01 07:10:00,64.8,62.1,30.00,SE,141,0.0,3.6,91,0.00,,,0.00,VWS V12.08,2015-07-01 11:10:00,
2015-07-01 07:15:00,65.1,62.2,30.00,South,172,8.1,8.1,91,0.00,,,0.00,VWS V12.08,2015-07-01 11:15:00,
2015-07-01 07:25:00,65.3,63.1,30.00,SW,217,3.1,5.8,92,0.00,,,0.00,VWS V12.08,2015-07-01 11:25:00,
2015-07-01 07:30:00,65.3,62.9,30.00,South,181,2.2,5.8,92,0.00,,,0.00,VWS V12.08,2015-07-01 11:30:00,
2015-07-01 07:40:00,65.1,62.9,30.00,South,179,3.6,5.8,92,0.00,,,0.00,VWS V12.08,2015-07-01 11:40:00,
2015-07-01 07:45:00,65.1,62.6,30.00,SSE,157,2.7,5.4,92,0.00,,,0.00,VWS V12.08,2015-07-01 11:45:00,
2015-07-01 07:55:00,64.8,62.4,29.97,NE,45,0.0,5.4,92,0.00,,,0.00,VWS V12.08,2015-07-01 11:55:00,
2015-07-01 08:00:00,64.6,62.2,29.97,SSW,198,0.0,5.4,92,0.00,,,0.00,VWS V12.08,2015-07-01 12:00:00,
2015-07-01 08:10:00,64.6,62.2,29.97,East,85,0.0,2.7,92,0.00,,,0.00,VWS V12.08,2015-07-01 12:10:00,
2015-07-01 08:15:00,64.8,62.4,29.97,NNW,338,3.1,3.1,92,0.00,,,0.00,VWS V12.08,2015-07-01 12:15:00,
2015-07-01 08:20:00,64.8,62.4,29.97,ENE,78,0.0,3.1,92,0.00,,,0.00,VWS V12.08,2015-07-01 12:20:00,
2015-07-01 08:25:00,64.9,62.6,29.97,SSE,158,0.0,0.0,92,0.00,,,0.00,VWS V12.08,2015-07-01 12:25:00,
2015-07-01 08:30:00,64.9,62.6,29.97,SSW,197,0.0,3.1,92,0.00,,,0.00,VWS V12.08,2015-07-01 12:30:00,
2015-07-01 08:40:00,65.1,62.7,29.97,ESE,119,0.0,3.1,92,0.00,,,0.00,VWS V12.08,2015-07-01 12:40:00,
2015-07-01 08:45:00,65.1,62.7,29.97,SSW,195,0.0,0.0,92,0.00,,,0.00,VWS V12.08,2015-07-01 12:45:00,
2015-07-01 08:50:00,65.1,62.7,29.97,ESE,112,0.0,0.0,92,0.00,,,0.00,VWS V12.08,2015-07-01 12:50:00,
2015-07-01 08:55:00,65.1,62.7,29.97,SE,130,0.0,0.0,92,0.00,,,0.00,VWS V12.08,2015-07-01 12:55:00,
2015-07-01 09:00:00,65.1,62.7,29.97,East,84,0.0,0.0,92,0.00,,,0.00,VWS V12.08,2015-07-01 13:00:00,
2015-07-01 09:10:00,65.5,63.1,29.97,East,86,0.0,0.0,92,0.00,,,0.00,VWS V12.08,2015-07-01 13:10:00,
2015-07-01 09:15:00,65.5,63.1,29.97,East,94,0.0,0.0,92,0.00,,,0.00,VWS V12.08,2015-07-01 13:15:00,
2015-07-01 09:25:00,65.7,63.3,29.97,South,188,0.0,0.0,92,0.00,,,0.00,VWS V12.08,2015-07-01 13:25:00,
2015-07-01 09:30:00,65.7,63.3,29.97,South,188,0.0,0.0,92,0.00,,,0.00,VWS V12.08,2015-07-01 13:30:00,
2015-07-01 09:40:00,65.3,63.2,29.97,South,188,0.0,0.0,93,0.00,,,0.00,VWS V12.08,2015-07-01 13:40:00,
2015-07-01 09:45:00,65.1,63.0,29.97,South,188,0.0,0.0,93,0.00,,,0.00,VWS V12.08,2015-07-01 13:45:00,
2015-07-01 09:50:00,64.6,62.2,29.97,NNW,346,0.0,0.0,92,0.00,,,0.00,VWS V12.08,2015-07-01 13:50:00,
2015-07-01 09:55:00,64.4,62.2,29.97,NNE,32,0.0,0.0,92,0.00,,,0.00,VWS V12.08,2015-07-01 13:55:00,
2015-07-01 10:00:00,64.4,62.3,29.97,NNE,32,0.0,0.0,93,0.00,,,0.00,VWS V12.08,2015-07-01 14:00:00,
2015-07-01 10:10:00,64.4,62.3,29.94,NNW,336,0.0,0.0,93,0.00,,,0.00,VWS V12.08,2015-07-01 14:10:00,
2015-07-01 10:15:00,64.6,62.3,29.94,WNW,300,2.2,3.6,93,0.00,,,0.00,VWS V12.08,2015-07-01 14:15:00,
2015-07-01 10:20:00,64.6,62.5,29.94,NNE,24,2.2,0.0,93,0.00,,,0.00,VWS V12.08,2015-07-01 14:20:00,
2015-07-01 10:25:00,64.8,62.7,29.94,SW,233,4.0,4.0,93,0.00,,,0.00,VWS V12.08,2015-07-01 14:25:00,
2015-07-01 10:30:00,65.1,62.7,29.94,WNW,303,0.0,4.0,92,0.00,,,0.00,VWS V12.08,2015-07-01 14:30:00,
2015-07-01 10:35:00,65.1,62.7,29.94,WNW,303,0.0,4.0,92,0.00,,,0.00,VWS V12.08,2015-07-01 14:35:00,
2015-07-01 10:40:00,65.3,62.9,29.91,WNW,303,0.0,4.0,92,0.00,,,0.00,VWS V12.08,2015-07-01 14:40:00,
2015-07-01 10:45:00,65.5,63.1,29.91,SSW,201,0.0,3.6,92,0.00,,,0.00,VWS V12.08,2015-07-01 14:45:00,
2015-07-01 10:50:00,65.7,63.3,29.91,SSW,201,0.0,3.6,92,0.00,,,0.00,VWS V12.08,2015-07-01 14:50:00,
2015-07-01 10:55:00,65.8,63.5,29.91,SSW,201,0.0,3.6,92,0.00,,,0.00,VWS V12.08,2015-07-01 14:55:00,
2015-07-01 11:01:00,65.8,63.5,29.91,SSW,200,0.0,3.6,92,0.00,,,0.00,VWS V12.08,2015-07-01 15:01:00,
2015-07-01 11:10:00,65.8,63.5,29.94,WNW,282,0.0,0.0,92,0.00,,,0.00,VWS V12.08,2015-07-01 15:10:00,
2015-07-01 11:16:00,65.8,63.5,29.94,SW,223,0.0,0.0,92,0.00,,,0.00,VWS V12.08,2015-07-01 15:16:00,
2015-07-01 11:25:00,65.8,63.5,29.94,SSW,197,0.0,0.0,92,0.00,,,0.00,VWS V12.08,2015-07-01 15:25:00,
2015-07-01 11:35:00,65.8,63.5,29.94,SSW,197,0.0,0.0,92,0.00,,,0.00,VWS V12.08,2015-07-01 15:35:00,
2015-07-01 11:40:00,65.8,63.5,29.91,SSW,197,0.0,0.0,92,0.00,,,0.00,VWS V12.08,2015-07-01 15:40:00,
2015-07-01 11:45:00,66.0,63.6,29.91,SE,128,0.0,0.0,92,0.00,,,0.00,VWS V12.08,2015-07-01 15:45:00,
2015-07-01 11:55:00,66.6,64.2,29.91,WSW,240,0.0,0.0,92,0.00,,,0.00,VWS V12.08,2015-07-01 15:55:00,
2015-07-01 12:00:00,66.6,64.2,29.91,SSE,157,0.0,0.0,92,0.00,,,0.00,VWS V12.08,2015-07-01 16:00:00,
2015-07-01 12:10:00,67.3,64.9,29.91,South,187,0.0,0.0,92,0.00,,,0.00,VWS V12.08,2015-07-01 16:10:00,
2015-07-01 12:15:00,67.5,64.9,29.91,NE,44,0.0,2.7,92,0.00,,,0.00,VWS V12.08,2015-07-01 16:15:00,
2015-07-01 12:20:00,67.6,65.2,29.91,ENE,63,0.0,2.7,92,0.00,,,0.00,VWS V12.08,2015-07-01 16:20:00,
2015-07-01 12:25:00,67.6,65.2,29.91,SE,127,0.0,2.2,93,0.00,,,0.00,VWS V12.08,2015-07-01 16:25:00,
2015-07-01 12:30:00,68.0,65.7,29.91,ENE,67,0.0,3.1,93,0.00,,,0.00,VWS V12.08,2015-07-01 16:30:00,
2015-07-01 12:35:00,67.6,65.6,29.91,SE,137,0.0,3.1,93,0.00,,,0.00,VWS V12.08,2015-07-01 16:35:00,
2015-07-01 12:40:00,67.6,65.6,29.91,SSE,162,0.0,3.1,93,0.00,,,0.00,VWS V12.08,2015-07-01 16:40:00,
2015-07-01 12:45:00,68.0,65.7,29.91,East,86,0.0,3.1,93,0.00,,,0.00,VWS V12.08,2015-07-01 16:45:00,
2015-07-01 12:50:00,68.4,66.1,29.91,SW,217,0.0,3.1,93,0.00,,,0.00,VWS V12.08,2015-07-01 16:50:00,
2015-07-01 12:55:00,68.5,66.4,29.88,SE,129,0.0,3.1,93,0.00,,,0.00,VWS V12.08,2015-07-01 16:55:00,
2015-07-01 13:00:00,68.4,66.3,29.88,SSE,160,0.0,3.1,93,0.00,,,0.00,VWS V12.08,2015-07-01 17:00:00,
2015-07-01 13:05:00,68.0,65.9,29.88,South,187,0.0,3.6,93,0.00,,,0.00,VWS V12.08,2015-07-01 17:05:00,
2015-07-01 13:10:00,67.8,65.9,29.88,South,170,0.0,3.6,93,0.00,,,0.00,VWS V12.08,2015-07-01 17:10:00,
2015-07-01 13:15:00,67.8,65.7,29.88,ESE,114,0.0,3.6,93,0.00,,,0.00,VWS V12.08,2015-07-01 17:15:00,
2015-07-01 13:20:00,68.0,65.9,29.88,NE,46,0.0,3.6,93,0.00,,,0.00,VWS V12.08,2015-07-01 17:20:00,
2015-07-01 13:25:00,68.0,65.9,29.88,East,87,0.0,0.0,93,0.00,,,0.00,VWS V12.08,2015-07-01 17:25:00,
2015-07-01 13:30:00,68.4,66.1,29.88,South,177,0.0,2.7,93,0.00,,,0.00,VWS V12.08,2015-07-01 17:30:00,
2015-07-01 13:40:00,69.6,67.5,29.88,South,169,0.0,3.6,93,0.00,,,0.00,VWS V12.08,2015-07-01 17:40:00,
2015-07-01 13:45:00,69.8,67.5,29.88,South,175,0.0,4.0,93,0.00,,,0.00,VWS V12.08,2015-07-01 17:45:00,
2015-07-01 13:50:00,69.6,67.5,29.88,SSW,201,0.0,4.0,93,0.00,,,0.00,VWS V12.08,2015-07-01 17:50:00,
2015-07-01 13:55:00,69.8,67.5,29.88,SW,230,0.0,4.0,93,0.00,,,0.00,VWS V12.08,2015-07-01 17:55:00,
2015-07-01 14:00:00,69.6,67.7,29.88,SSE,158,3.1,4.0,93,0.00,,,0.00,VWS V12.08,2015-07-01 18:00:00,
2015-07-01 14:10:00,69.6,67.7,29.88,ESE,118,0.0,4.9,93,0.00,,,0.00,VWS V12.08,2015-07-01 18:10:00,
2015-07-01 14:15:00,69.8,67.5,29.88,WSW,257,0.0,4.9,93,0.00,,,0.00,VWS V12.08,2015-07-01 18:15:00,
2015-07-01 14:25:00,69.6,67.7,29.85,SE,142,0.0,4.0,93,0.00,,,0.00,VWS V12.08,2015-07-01 18:25:00,
2015-07-01 14:30:00,69.8,67.5,29.85,NNW,343,0.0,4.0,93,0.00,,,0.00,VWS V12.08,2015-07-01 18:30:00,
2015-07-01 14:35:00,69.6,67.7,29.85,SW,235,3.1,4.0,93,0.00,,,0.00,VWS V12.08,2015-07-01 18:35:00,
2015-07-01 14:40:00,69.8,67.5,29.85,SSW,194,0.0,4.0,93,0.00,,,0.00,VWS V12.08,2015-07-01 18:40:00,
2015-07-01 14:45:00,69.6,67.7,29.85,SSW,194,0.0,0.0,93,0.00,,,0.00,VWS V12.08,2015-07-01 18:45:00,
2015-07-01 14:50:00,69.6,67.7,29.85,SE,144,0.0,0.0,93,0.00,,,0.00,VWS V12.08,2015-07-01 18:50:00,
2015-07-01 14:55:00,69.6,67.7,29.85,SSE,154,0.0,3.1,93,0.00,,,0.00,VWS V12.08,2015-07-01 18:55:00,
2015-07-01 15:00:00,69.8,67.5,29.85,SSE,159,0.0,4.0,93,0.00,,,0.00,VWS V12.08,2015-07-01 19:00:00,
2015-07-01 15:10:00,72.9,70.7,29.85,WSW,245,3.6,4.0,93,0.00,,,0.00,VWS V12.08,2015-07-01 19:10:00,
2015-07-01 15:15:00,72.9,70.7,29.85,NW,322,0.0,4.0,93,0.00,,,0.00,VWS V12.08,2015-07-01 19:15:00,
2015-07-01 15:25:00,73.4,70.6,29.85,WSW,256,0.0,3.6,91,0.00,,,0.00,VWS V12.08,2015-07-01 19:25:00,
2015-07-01 15:30:00,73.8,70.8,29.85,SSW,201,3.1,3.6,91,0.00,,,0.00,VWS V12.08,2015-07-01 19:30:00,
2015-07-01 15:35:00,73.4,70.6,29.85,SSW,210,4.9,4.9,91,0.00,,,0.00,VWS V12.08,2015-07-01 19:35:00,
2015-07-01 15:40:00,73.4,70.6,29.85,NNW,327,2.2,5.8,91,0.00,,,0.00,VWS V12.08,2015-07-01 19:40:00,
2015-07-01 15:45:00,73.4,70.6,29.85,South,186,0.0,4.5,91,0.00,,,0.00,VWS V12.08,2015-07-01 19:45:00,
2015-07-01 15:55:00,73.4,70.5,29.85,SE,125,0.0,5.4,90,0.00,,,0.00,VWS V12.08,2015-07-01 19:55:00,
2015-07-01 16:00:00,73.4,70.5,29.85,SSW,203,0.0,5.4,90,0.00,,,0.00,VWS V12.08,2015-07-01 20:00:00,
2015-07-01 16:10:00,73.0,70.1,29.85,ESE,106,0.0,4.0,90,0.00,,,0.00,VWS V12.08,2015-07-01 20:10:00,
2015-07-01 16:15:00,72.9,69.9,29.85,South,178,0.0,4.0,90,0.00,,,0.00,VWS V12.08,2015-07-01 20:15:00,
2015-07-01 16:20:00,72.5,69.1,29.85,SSE,147,0.0,0.0,89,0.00,,,0.00,VWS V12.08,2015-07-01 20:20:00,
2015-07-01 16:25:00,72.5,69.3,29.85,SSW,205,0.0,6.3,89,0.00,,,0.00,VWS V12.08,2015-07-01 20:25:00,